Orbital Elements at Epoch 2459200.5 (2020-Dec-17.0) TDB
Reference: JPL 22 (heliocentric ecliptic J2000)
Element | Value | Uncertainty (1-sigma) | Units |
e | .1264062805676961 | 3.6684e-08 | |
a | 2.683311103815381 | 1.596e-08 | au |
q | 2.34412372757608 | 1.0007e-07 | au |
i | 4.798804345726825 | 5.5823e-06 | deg |
node | 57.37442167658845 | 4.4347e-05 | deg |
peri | 104.7573100114465 | 4.9751e-05 | deg |
M | 246.5187032862833 | 2.4685e-05 | deg |
tp | 2459706.588836419144 (2022-May-07.08883642) | 0.00011243 | TDB |
period | 1605.480254341066 4.40 | 1.4324e-05 3.922e-08 | d yr |
n | .2242319698586104 | 2.0005e-09 | deg/d |
Q | 3.022498480054683 | 1.7977e-08 | au |
|
| | Orbit Determination Parameters
Additional Information
|